Regional Weather Roundup
Issued by NWS

Home | Current Version | Previous Version | Graphics & Text | Print | Product List | Glossary On
Versions: 1 2 3 4 5 6 7 8 9 10 11 12 13 14 15 16 17 18 19 20 21 22 23 24 25 26 27 28 29 30 31 32 33 34 35 36 37 38 39 40 41 42 43 44 45 46 47 48 49 50
000
ASUS45 KTFX 201304
RWRMT
MONTANA HOURLY WEATHER ROUNDUP
NATIONAL WEATHER SERVICE GREAT FALLS MT
704 AM MDT SUN APR 20 2014

NOTE: "FAIR" INDICATES FEW OR NO CLOUDS BELOW 12000 FEET WITH NO
SIGNIFICANT WEATHER AND/OR OBSTRUCTIONS TO VISIBILITY.

* THESE STATIONS ARE NOT UNDER NWS QUALITY CONTROL. THEY DO NOT
   REPORT WEATHER SUCH AS PRECIPITATION OR FOG.

MTZ001>007-043-201400-
WEST OF THE DIVIDE
CITY           SKY/WX    TMP DP  RH WIND       PRES   REMARKS
KALISPELL      CLOUDY    41  30  65 S13       30.09R
MISSOULA       CLOUDY    45  25  45 W6        30.19R
BUTTE          PTCLDY    36  25  64 NW3       30.12R
MULLAN PASS    LGT SNOW  27  25  92 VRB6      30.12R WCI  20
* ESSEX        N/A       36  32  85 N1         N/A
* LINCOLN      N/A       39  24  55 SW5G20     N/A   WCI  35
* LOOKOUT PASS N/A       34  27  76 SE7G15     N/A   WCI  28
* PLAINS APT   CLEAR     46  28  50 SW6       30.17R
* POLSON       N/A       35  27  73 NE2G8      N/A
* SEELEY LAKE  N/A       39  23  53 SW3G9      N/A
* THOMP F APT  CLEAR     40  19  43 N6G12      N/A   WCI  36
* YAAK HILL    N/A       45  27  49 E2         N/A
$$

MTZ008-052>055-201400-
SOUTHWEST MONTANA
CITY           SKY/WX    TMP DP  RH WIND       PRES   REMARKS
BOZEMAN        PTCLDY    37  27  67 N6        30.09R WCI  32
DILLON         CLEAR     39  21  48 SW17      30.10R WCI  30
W YELLOWSTONE  N/A       27  24  88 SW1        N/A
* THREE FORKS  PTCLDY    46  30  54 N9         N/A
* BOULDER HILL N/A       37  21  52 S6         N/A   WCI  32
* MONIDA PASS  N/A       33  22  64 W12        N/A   WCI  24
* RAYNOLDS PAS N/A       39   1  20 NE10       N/A   WCI  32
* WHITEHALL    N/A       43  25  49 W8G17      N/A
* WISE RIVER   N/A       36  21  54 W9G21      N/A   WCI  29
$$

MTZ009>010-012-014-046-048-049-054-201400-
EAST SLOPES AND CENTRAL MONTANA
CITY           SKY/WX    TMP DP  RH WIND       PRES   REMARKS
CUT BANK       CLEAR     37  28  70 W21       29.93R WCI  26
GREAT FALLS    CLEAR     39  25  57 SW16      30.01R WCI  30
HELENA         MOCLDY    41  27  58 W5        30.09R
MALMSTROM AFB  PTCLDY    43  23  45 SW13G22   29.99R
* CONRAD       CLEAR     36  30  79 SW5        N/A   WCI  32
* DEARBORN     N/A       46  20  36 S14G22     N/A
* MONARCH      N/A       38  15  39 W26G36     N/A   WCI  26
* PENDROY      N/A       36  28  73 W12        N/A   WCI  28
* ROGERS PASS  N/A       35  20  54 SE12G32    N/A   WCI  27
* SAINT MARY   N/A       34  31  89 S10G28     N/A   WCI  26
* SWEET GRASS  N/A       38  33  82 SW25G36    N/A   WCI  27
$$

MTZ011-013-016-021-035-040-045-047-050-051-201400-
NORTH CENTRAL MONTANA
CITY           SKY/WX    TMP DP  RH WIND       PRES   REMARKS
HAVRE          PTCLDY    41  28  60 SW12      29.91R
LEWISTOWN      CLOUDY    45  25  45 W18G26    29.99R
* MALTA APT    MOCLDY    48  27  44 W13G21    29.84R
* CHESTER      N/A       42  26  53 W14G23     N/A
* DENTON       N/A       45  25  45 SW24G32    N/A
* GEYSER       N/A       42  20  41 W28G37     N/A
* JUDITH GAP   N/A       42  28  58 NW12G19    N/A
* LOMA         N/A       49  26  41 SW26G40    N/A
$$

MTZ017>020-022>027-061-062-201400-
NORTHEAST MONTANA
CITY           SKY/WX    TMP DP  RH WIND       PRES   REMARKS
GLASGOW        CLOUDY    37  30  76 SW6       29.83R WCI  32
GLENDIVE       CLOUDY    37  27  67 S3        29.86S
JORDAN         CLOUDY    46  28  50 W21       29.86R
SIDNEY         CLOUDY    34  30  85 CALM      29.87S
WOLF POINT     CLOUDY    36  30  79 E5        29.81F WCI  32
* BEAVER HILL  N/A       50  30  46 SE13       N/A
* CIRCLE       N/A       49  32  52 N/A        N/A
* LINDSAY DVD  N/A       41  25  53 SE7        N/A
* NAVAJO       N/A       39  29  67 S4         N/A
* SACO         N/A       36  28  73 W9         N/A   WCI  29
* SCOBEY APT   CLOUDY    36  27  70 CALM      29.80S
$$

MTZ028>042-056>058-201400-
SOUTHCENTRAL AND SOUTHEAST MONTANA
CITY           SKY/WX    TMP DP  RH WIND       PRES   REMARKS
BAKER          PTCLDY    39  30  70 SE8       29.88S WCI  33
BILLINGS       CLOUDY    50  27  41 NW13      29.94R
LIVINGSTON     PTCLDY    45  28  51 NW15      30.04R
MILES CITY     MOCLDY    43  34  71 SE7       29.85R
* EKALAKA APT  PTCLDY    52  32  47 E6        29.88S
* LAUREL APT   CLOUDY    52  23  32 NW18G24    N/A
* ROUNDUP APT  CLOUDY    52  25  35 W11G20     N/A
* HYSHAM       N/A       50  26  39 W11G22     N/A
* LAME DEER    N/A       49  26  41 SW7        N/A
* REED POINT   N/A       35  30  82 N/A        N/A
* ROSCOE HILL  N/A       47  11  23 E8G14      N/A
$$

REGIONAL REPORTS...DAKOTAS
CITY           SKY/WX    TMP DP  RH WIND       PRES   REMARKS
WILLISTON      MOCLDY    34  30  85 CALM      29.86S
DICKINSON      PTCLDY    43  27  53 S12       29.87F
CROSBY         CLEAR     36  34  92 SE3       29.86S
TIOGA          CLEAR     32  32 100 NE3       29.90F
WATFORD CITY   CLEAR     36  30  79 SE10      29.85F WCI  29
BISMARCK       CLEAR     36 N/A N/A NE7       29.96S WCI  30
GRAND FORKS    FAIR      36  32  85 CALM      30.04S
FARGO          CLEAR     39  36  89 CALM      30.03S
BUFFALO SD     CLEAR     41  28  60 S6        29.85S
RAPID CITY     CLEAR     43  30  60 SE3       29.91S
$$

REGIONAL REPORTS...WYOMING/IDAHO/WASHINGTON
CITY           SKY/WX    TMP DP  RH WIND       PRES   REMARKS
GILLETTE       CLEAR     37  30  76 SE3       29.93S
SHERIDAN       MOCLDY    36  30  79 CALM      29.91R
CODY           MOCLDY    48  27  44 SW3       29.96S
YELLOWSTONE LA PTCLDY    23  19  85 NW3       30.12R
SALMON         CLEAR     39  23  53 CALM      30.16R
MULLAN PASS    LGT SNOW  27  25  92 VRB6      30.12S WCI  20
SAND POINT     N/A       41  32  70 SW9       30.18R
SPOKANE        FAIR      36  30  79 S7        30.19R WCI  30
$$

REGIONAL REPORTS...ALBERTA
CITY           SKY/WX    TMP DP  RH WIND       PRES   REMARKS
EDMONTON       MOCLDY    39  37  93 NE2       29.81S

$$




USA.gov is the U.S. government's official web portal to all federal, state and local government web resources and services.